Location: Stilling
(56.0622°N, 9.9882°E)
Time: 02:50:29
(UTC+00:00)

Gbstr 26 Del rocket - Visible Passes

Search period start: 23 October 2020 00:00
Search period end: 02 November 2020 00:00
Orbit: 493 x 1264 km, 51.8° (Epoch: 22 October)

Date Brightness Start Highest point End Pass type
(mag) Time Alt. Az. Time Alt. Az. Time Alt. Az.
23 Oct 5.5 16:28:21 10° W 16:33:54 38° SSW 16:40:28 10° SE visible
23 Oct 6.5 18:16:09 10° W 18:20:04 16° SW 18:24:19 10° S visible
24 Oct 6.7 18:11:58 10° WSW 18:15:04 14° SW 18:18:23 10° SSW visible
25 Oct 6.9 18:08:17 10° WSW 18:10:04 11° SW 18:11:53 10° SW visible
